sat.trackr.live / text

‹ back to catalog

STARLINK-32474

NORAD 61260 · 2024-175T

PAYLOAD ACTIVE UNKNOWN

§ Identity

Operator
Country
US
Launch date
2024-09-25
Launch site
AFWTR
Launch vehicle
Mass (kg)
RCS (m²)

Purposes: comms

External: N2YO · Heavens-Above · Gunter

§ Orbital elements

Epoch: 2026-05-24T13:54:31.518144Z

Period
94.11 min
Inclination
53.1594°
Eccentricity
0.0001037
Mean motion
15.30192725 rev/d
Perigee alt
474.5 km
Apogee alt
475.9 km
Semi-major
6,853.4 km
B*
2.0104e-5
RAAN
201.4683°
Arg perigee
78.3133°
Mean anomaly
281.7984°
Rev number
9,307

§ Raw data

STARLINK-324741 61260U 24175T   26144.57953146  .00000236  00000+0  20104-4 0  99922 61260  53.1594 201.4683 0001037  78.3133 281.7984 15.30192725 93077

JSON: /api/v1/satellites/61260 · /tle

For live sub-satellite position, see the globe view (requires WebGL).

§ Visibility from observer

Set your observer location to see the next 7 days of passes ≥ 10°. The values pass through the URL so the page stays shareable.

No JS? Fill the form by hand. The geolocation button needs JavaScript.